Location: Austin, TX
(30.3000°N, 97.7500°W)
Time: 16:45:09
(UTC-05:00)

Daily predictions for brighter satellites

Satellite Brightness Start Highest point End
(mag) Time Altitude Azimuth Time Altitude Azimuth Time Altitude Azimuth
Cosmos 1544 Rocket 3.9 20:09:28 10° S 20:13:49 75° W 20:18:14 10° N
Cosmos 2123 Rocket 4.2 20:11:33 10° N 20:17:31 48° E 20:23:27 10° SSE
Tiangong 1 3.6 20:16:27 10° N 20:17:45 12° NNE 20:19:01 10° NE
Helios 1A 3.2 20:17:24 10° SSE 20:21:25 50° ENE 20:25:29 10° N
FREGAT/IRIS 2.6 20:19:11 10° SSE 20:22:18 86° E 20:25:27 10° N
Cosmos 1500 4.3 20:19:24 10° SE 20:22:22 23° E 20:25:22 10° NE
Cosmos 1461 2.8 20:21:51 10° NNW 20:25:50 80° WSW 20:29:43 10° SSE
Fermi 4.4 20:22:52 10° WSW 20:26:47 42° S 20:30:30 11° ESE
Cosmos 2322 Rocket 3.8 20:25:23 10° ESE 20:27:02 11° E 20:28:39 10° E
Cosmos 1934 Rocket 4.2 20:22:02 10° S 20:28:08 78° W 20:34:24 10° N
Cosmos 2227 Rocket 2.2 20:23:31 10° NNW 20:29:11 76° ENE 20:34:48 10° SSE
CZ-2D R/B 4.5 20:30:18 10° SE 20:33:25 23° ENE 20:36:33 10° NNE
Resurs 01 Rocket 1.6 20:33:41 10° SSE 20:38:06 86° E 20:42:33 10° N
Cosmos 1975 2.8 20:34:11 10° S 20:38:15 70° E 20:42:20 10° NNE
H-2A R/B 4.1 20:34:23 10° W 20:38:36 53° S 20:57:09 14° ESE
Hubble Space Telescope 3.3 20:37:33 10° SW 20:39:08 12° SSW 20:40:43 10° S
EO 1 Delta rocket 4.4 20:34:19 10° NNE 20:39:20 55° E 20:45:33 10° S
Cosmos 1763 Rocket 4.0 20:37:04 10° SSE 20:41:37 33° E 20:46:08 10° NE
Cosmos 2297 Rocket 2.2 20:38:01 10° NNW 20:43:41 71° ENE 20:49:18 10° SSE
Lacrosse 5 rocket 1.2 20:40:21 10° NW 20:44:00 70° SW 20:47:27 11° SSE
Cosmos 1153 Rocket 4.4 20:38:46 10° S 20:44:52 65° E 20:50:56 10° NNE
HJ-1C 3.8 20:42:37 10° S 20:45:51 62° W 20:49:07 10° NNW
FengYun 1-2 T 4.2 20:41:29 10° SSE 20:47:05 72° ENE 20:52:40 10° N
Cosmos 2082 3.8 20:41:54 10° NNW 20:47:31 79° WSW 20:53:08 10° SSE
Cosmos 1515 4.0 20:49:31 10° N 20:53:11 42° E 20:55:57 16° SSE
Cosmos 2150 Rocket 4.3 20:50:44 10° N 20:55:41 46° ENE 20:59:25 17° SE
Cosmos 2084 3.4 20:54:31 10° NNW 20:58:40 66° ENE 21:01:27 21° SE
Cosmos 1898 Rocket 3.5 20:57:44 10° N 21:02:57 59° ENE 21:06:47 18° SSE
Cosmos 1802 Rocket 4.4 20:57:51 10° SSE 21:03:49 43° E 21:09:50 10° NNE
Cosmos 2016 Rocket 4.5 21:00:24 10° SSE 21:05:53 36° E 21:11:25 10° NNE
Cosmos 841 Rocket 3.5 21:02:38 10° S 21:07:44 56° ESE 21:12:49 10° NNE
Cosmos 1743 2.8 21:05:22 10° S 21:09:09 51° E 21:12:57 10° NNE
Cosmos 1697 Rocket 3.8 21:04:33 10° SW 21:09:58 47° WNW 21:15:24 10° N
OTV 4 2.3 21:09:04 10° W 21:11:25 21° SSW 21:12:15 19° S
Orbus 7S 3.8 21:05:32 10° W 21:11:52 51° SSW 21:12:55 35° SE
CZ-4B DEB 3.5 21:09:36 10° S 21:12:47 54° W 21:16:01 10° NNW
Cosmos 2173 Rocket 4.0 21:11:02 10° S 21:17:19 67° E 21:23:36 10° NNE
Cosmos 1626 Rocket 4.1 21:13:53 10° NNW 21:18:10 58° W 21:22:24 10° S
Cosmos 1939 Rocket 4.4 21:22:25 22° NE 21:22:25 22° NE 21:24:47 10° NNE
DELTA 2 R/B (1) 3.5 21:18:25 10° WNW 21:24:01 85° SSW 21:26:11 39° SE
USA 186 1.5 21:24:27 74° SW 21:24:34 76° W 21:27:24 10° NNW
SL-16 R/B 2.5 21:20:37 10° S 21:25:54 42° ESE 21:31:13 10° NE
Cosmos 1066 Rocket 4.2 21:20:34 10° N 21:26:21 83° E 21:30:50 18° S
Lacrosse 5 1.8 21:23:43 10° NNW 21:28:47 73° NE 21:30:12 47° ESE
BREEZE-M TANK 4.2 21:21:24 10° NW 21:29:28 29° N 21:31:15 21° NE
Cosmos 1980 Rocket 3.1 21:29:27 10° SW 21:34:54 49° WNW 21:40:25 10° N
YAOGAN 11 4.3 21:35:47 52° ENE 21:35:47 52° ENE 21:40:02 10° N
Iridium 4 Rocket 3.9 21:33:02 10° NNW 21:37:34 51° W 21:41:44 10° SSW
Cosmos 2100 Rocket 4.2 21:31:23 10° S 21:37:38 73° W 21:43:52 10° N
ALOS 3.4 21:34:58 10° S 21:39:23 41° W 21:43:48 10° NNW
H-2A R/B 3.9 21:37:17 20° SSW 21:39:34 43° W 21:43:19 10° NNW
FENGYUN 3A 4.4 21:34:34 10° S 21:39:44 50° W 21:44:56 10° NNW
Envisat 3.3 21:52:51 52° NE 21:52:51 52° NE 21:57:14 10° N
RESURS DK-1 3.1 21:49:14 10° NNW 21:53:14 48° WSW 21:53:33 47° WSW
Tiangong 1 3.5 21:51:44 10° NW 21:53:02 22° NW 21:53:02 22° NW
Cosmos 1606 Rocket 4.1 21:53:55 31° SSW 21:55:49 55° W 22:00:10 10° N
OAO 2 Rocket 3.3 21:51:55 10° WNW 21:56:54 75° NNE 21:56:54 75° NNE
Cosmos 2058 Rocket 3.7 21:59:24 49° N 21:59:24 49° N 22:02:42 10° N
Tsikada Rocket 4.4 21:53:00 10° N 21:58:25 45° ENE 21:58:25 45° ENE
Cosmos 1937 Rocket 4.2 21:54:28 10° NNW 21:59:36 52° WSW 22:01:21 37° SSW
Cosmos 2263 Rocket 4.0 21:59:57 10° NNE 22:02:03 17° NE 22:02:03 17° NE
Cosmos 990 Rocket 4.2 22:00:11 10° NNW 22:05:22 65° WSW 22:05:51 61° SW
Cosmos 1340 4.3 22:03:46 10° NNW 22:06:06 33° NW 22:06:06 33° NW
Cosmos 1725 Rocket 3.8 22:07:39 71° SSE 22:08:24 84° E 22:14:39 10° N
ERS-1 Rocket 3.0 22:09:00 73° W 22:09:00 73° W 22:13:52 10° NNW
Cosmos 2322 Rocket 2.4 22:04:49 10° SSW 22:10:22 67° WNW 22:15:57 10° NNE
CZ-3C R/B 4.0 22:46:53 10° W 23:02:34 27° SW 23:02:34 27° SW
Milstar 3 Cent rocket 4.1 22:47:00 10° W 23:06:23 59° SSW 23:06:49 59° SSW
SL-16 R/B 4.4 23:05:58 10° WSW 23:10:08 21° WNW 23:14:18 10° NNW
